User: anonymous   Login
Location: Unspecified
(0.0000°N, 0.0000°E)
Time: 21:41:00
(UTC+00:00)
Language:

OV3-3 - Orbit

View from above orbital plane
View from above orbital plane
View from above satellite
View from above satellite

Ground track
Ground track

The orbit data is extracted from the following two-line orbital elements,

1 02389U 66070A   17350.86406530  .00002624  00000-0  14603-3 0  9990
2 02389  81.3880  19.8557 1247351 197.0688 158.4622 12.90953781193386
Epoch (UTC): 16 December 2017 20:44:15
Eccentricity: 0.1247351
inclination: 81.3880°
perigee height: 340 km
apogee height: 2255 km
right ascension of ascending node: 19.8557°
argument of perigee: 197.0688°
revolutions per day: 12.90953781
mean anomaly at epoch: 158.4622°
orbit number at epoch: 19338

The dashed part of the orbit path shows where the satellite is in the earth's shadow,  

DLR